Showing default

YAOGAN 4, 33446

Orbit data source: Space-Track

YAOGAN 4, 33446 is a payload satellite owned by PLA GAD (CN) in SSO that was launched on Mon, 01 Dec 2008 UTC via a CHANG ZHENG 2D launch vehicle from the Jiuquan Satellite Launch Center, China (JSC). Payload-class satellites include a variety of spacecraft equipped with specific instruments for various scientific and technological missions. These include communications satellites like Starlink; space stations such as the ISS; scientific satellites like the Hubble; Earth observation satellites from companies like Planet Labs, Umbra, and HawkEye 360; GPS; miniature CubeSats for education and research; and military/defense satellites.

Loading next visibility...
Identifier
33446, 2008-061A
Orbit
SSO
Country
Flag of CNCN / PRC
Related business
Manufacturer
DFH
Mission
Operational Civil Radar Imaging
Bus & Motor
CAST-2000, Unknown motor
Mass
~700 kg wet, ~700 kg dry
Launch date (UTC)
2008-12-01 (18 years ago)
Launch vehicle
CHANG ZHENG 2D
Launch site
Jiuquan Satellite Launch Center, China (JSC)
Object type
Payload
Rocket body
Debris
Shape & HBR
Box + 2 Pan, 2.0 m
Radar Cross Section
5.141 m², Large (>1 m²)

Expand to show TLE details & history
Last TLE update: 2 days ago

TLE from 2 days ago
0 YAOGAN 4
1 33446U 08061A   26171.40531236  .00000754  00000-0  98778-4 0  9995
2 33446  97.9306 104.8918 0015630  62.9607 297.3200 14.83205273946144
Epoch: 2026-06-20T09:43Z
TLE epoch observation values (Epoch: 2026-06-20T09:43:38.987Z)
Latitude
-0.00003°
Longitude
50.35895°
Altitude
617.243 km
Speed
7.553 km/s
True Right ascension
06h 59m 34s
True Declination
0° 00' 00"
Sunlit
Object was in daylight at epoch
Visualization orbit readout
Latitude
Unknown
Longitude
Unknown
Altitude
Unknown
Speed
Unknown
Apparent Right ascension
Unknown
Apparent Declination
Unknown
Sunlit
N/A
Visualization observer readout
Local Sidereal Time
00:39:52
Azimuth
Unknown
Elevation
Unknown
Doppler factor
Unknown
Orbital elements
Apogee altitude
627.195 km
Perigee altitude
605.331 km
Semi-major axis
6,994.4 km
Eccentricity
0.00156
Inclination
97.9306°
RAAN
104.8918°
Arg. of periapsis
62.9607°
True anomaly
297.16073°
Mean anomaly
297.32°
Eccentric anomaly
297.24038°
Mean motion
3.71037 °/min
Orbital period
97.03 mins
BSTAR
0.000098778
Loading maneuver chart data...
Computing Atmospheric mass density...
Loading historical data...
Loading historical data...
Loading historical data...
Loading historical data...
Loading historical data...
Loading historical data...
Loading historical data...
Other satellites on launch #61 in the year 2008 (2008-12-01 UTC)

Documentation

Showing up to 5 results
|